Location: Unspecified
(0.0000°N, 0.0000°E)
Time: 10:47:04
(UTC+00:00)

Hubble Space Telescope - Pass Details

Date: 13 October 2017
Orbit: 537 x 541 km, 28.5° (Epoch: 15 December)

Event Time Altitude Azimuth Distance (km) Brightness Sun altitude
Rises 19:06:29 0° 248° (WSW) 2,672 5.8 -19.9°
Reaches altitude 10° 19:08:47 10° 253° (WSW) 1,780 4.6 -20.4°
Maximum altitude 19:12:48 52° 330° (NNW) 666 1.3 -21.4°
Enters shadow 19:13:31 45° 7° (N) 729 1.2 -21.6°
